STARLINK-1992 (47632 NORAD) Tracking and Keplerian Element Data

This shows tracking and keplerian element data for the satellite.

Feedback or suggestion? Click here.




ElementValue
Catalog47632
NameSTARLINK-1992
Epoch Orbit944
Epoch Day102.16668981
Epoch Year2021
RAAN187.6776
Inclination53.0472
Eccentricity0.0001671
Argument of Perigee24.8376
Mean Anonmoly26.544
Mean Motion15.73184175
Decay Rate0.00047174
L11 47632U 21012N 21102.16668981 .00047174 00000-0 33881-3 0 9998
L22 47632 53.0472 187.6776 0001671 24.8376 26.5440 15.73184175 9442

Live tracking and technical data element details for STARLINK-1992 (NORAD 47632). STARLINK-1992 can be tracked NOW for your location showing map with azimuth and elevation plus other details from your city location.

Track the satellite on the map from your city or location and see movement details for azimuth, elevation, latitude, longitude, range, height, and movement on the map or in text.







IsCatalogInMostPopularTable: catalog: 47632, numindb: 11
Update: records affected: 1



GetName: 47632 STARLINK-1992

Hit Count: updated at: Tue, 13 Apr 2021 04:18:56 GMT